Powrót do katalogu

STARLINK-5866

AktywnyŁącznośćVLEO
NORAD 57233·PAYLOAD·🇺🇸 United States

Wystrzelony Jul 7, 2023 z Vandenberg Space Force Base

Loading…

Następne Przeloty (najbliższe 24 godziny)

TLE

ŚwieżeSource: CelesTrak SupGP

Epoka: Sep 14, 2026, 20:45 UTC

1 57233C 23094R   26257.86506944  .00061159  00000+0  22149-2 0  2570
2 57233  43.0023  42.3738 0001398 271.3483 216.7284 15.27551928    16

Śledź STARLINK-5866 w czasie rzeczywistym z AllMySat

Download on the App Store